STARLINK-34867

Last updated on Tue Sep 16 2025 00:02:08 GMT+0000 (Coordinated Universal Time)

1 65459U 25195B 25257.83990296 .01337646 00000+0 62714-2 0 9999 2 65459 53.1559 1.1658 0004071 279.0833 80.9729 15.80109723 2984
UTC large
Height (km)
Speed (km/s)
/
Latitude / Longitude
Inclination (degrees)
Orbital Period (minutes)
Azimuth
Elevation
Range (km)
Doppler Factor

Next 0 passes for location: London (51.5072 / 0.1276)

Sorry there are no passes over London.